When you browse on this site, cookies collect data to enhance your experience and personalize the content and advertising you see.
Visit our Privacy Policy to learn more. By continuing to use the site, you agree to this use of cookies and data.
EN

Hourly Weather Gogol

Today, 21 September, Monday

Time Temperature Precipitation Wind Pressure Humidity
00:00 +9°C° 0 mm 1 mps 753 mmHg 82%
01:00 +8°C° 0 mm 1 mps 753 mmHg 84%
02:00 +8°C° 0 mm 1 mps 753 mmHg 86%
03:00 +8°C° 0 mm 1 mps 753 mmHg 87%
04:00 +6°C° 0 mm 2 mps 753 mmHg 88%
05:00 +6°C° 0 mm 2 mps 753 mmHg 89%
06:00 +7°C° 0 mm 2 mps 753 mmHg 84%
07:00 +8°C° 0 mm 2 mps 753 mmHg 79%
08:00 +10°C° 0 mm 2 mps 753 mmHg 72%
09:00 +12°C° 0 mm 2 mps 753 mmHg 67%
10:00 +14°C° 0 mm 2 mps 753 mmHg 62%
11:00 +16°C° 0 mm 3 mps 753 mmHg 57%
12:00 +17°C° 0 mm 3 mps 753 mmHg 56%
13:00 +18°C° 0 mm 3 mps 752 mmHg 56%
14:00 +19°C° 0 mm 3 mps 752 mmHg 56%
15:00 +18°C° 0 mm 3 mps 752 mmHg 61%
16:00 +18°C° 0 mm 2 mps 752 mmHg 65%
17:00 +17°C° 0 mm 2 mps 752 mmHg 70%
18:00 +16°C° 0 mm 2 mps 752 mmHg 75%
19:00 +14°C° 0 mm 2 mps 752 mmHg 79%
20:00 +13°C° 0 mm 2 mps 752 mmHg 84%
21:00 +12°C° 0 mm 2 mps 752 mmHg 85%
22:00 +12°C° 0 mm 2 mps 751 mmHg 86%
23:00 +12°C° 0 mm 2 mps 751 mmHg 87%

Tomorrow, 22 September, Tuesday

Time Temperature Precipitation Wind Pressure Humidity
00:00 +10°C° 0 mm 2 mps 751 mmHg 88%
01:00 +10°C° 0 mm 2 mps 751 mmHg 88%
02:00 +10°C° 0 mm 2 mps 751 mmHg 89%
03:00 +9°C° 0 mm 2 mps 751 mmHg 89%
04:00 +9°C° 0 mm 2 mps 751 mmHg 90%
05:00 +9°C° 0 mm 2 mps 750 mmHg 90%
06:00 +10°C° 0 mm 2 mps 751 mmHg 85%
07:00 +11°C° 0 mm 3 mps 751 mmHg 80%
08:00 +13°C° 0 mm 3 mps 751 mmHg 75%
09:00 +16°C° 0 mm 3 mps 751 mmHg 68%
10:00 +18°C° 0 mm 3 mps 751 mmHg 62%
11:00 +20°C° 0 mm 3 mps 751 mmHg 55%
12:00 +21°C° 0 mm 4 mps 750 mmHg 53%
13:00 +21°C° 0 mm 4 mps 750 mmHg 51%
14:00 +22°C° 0 mm 4 mps 750 mmHg 49%
15:00 +21°C° 0 mm 3 mps 750 mmHg 54%
16:00 +20°C° 0 mm 3 mps 749 mmHg 58%
17:00 +20°C° 0 mm 2 mps 749 mmHg 63%
18:00 +18°C° 0 mm 2 mps 749 mmHg 67%
19:00 +17°C° 0 mm 2 mps 749 mmHg 71%
20:00 +15°C° 0 mm 2 mps 749 mmHg 75%
21:00 +15°C° 0 mm 2 mps 749 mmHg 77%
22:00 +14°C° 0 mm 2 mps 749 mmHg 78%
23:00 +14°C° 0 mm 2 mps 749 mmHg 79%

Day after tomorrow, 23 September, Wednesday

Time Temperature Precipitation Wind Pressure Humidity
00:00 +13°C° 0 mm 2 mps 749 mmHg 80%
01:00 +13°C° 0 mm 2 mps 749 mmHg 81%
02:00 +13°C° 0 mm 2 mps 749 mmHg 81%
03:00 +13°C° 0 mm 2 mps 749 mmHg 80%
04:00 +12°C° 0 mm 2 mps 749 mmHg 79%
05:00 +12°C° 0 mm 2 mps 749 mmHg 78%
06:00 +13°C° 0 mm 2 mps 749 mmHg 73%
07:00 +13°C° 0 mm 3 mps 749 mmHg 68%
08:00 +14°C° 0 mm 3 mps 749 mmHg 63%
09:00 +17°C° 0 mm 3 mps 749 mmHg 58%
10:00 +18°C° 0 mm 3 mps 748 mmHg 52%
11:00 +20°C° 0 mm 3 mps 748 mmHg 47%
12:00 +21°C° 0 mm 4 mps 748 mmHg 44%
13:00 +22°C° 0 mm 4 mps 748 mmHg 41%
14:00 +23°C° 0 mm 4 mps 748 mmHg 39%
15:00 +22°C° 0 mm 4 mps 748 mmHg 45%
16:00 +20°C° 0 mm 3 mps 747 mmHg 50%
17:00 +19°C° 0 mm 3 mps 747 mmHg 56%
18:00 +18°C° 0 mm 3 mps 747 mmHg 56%
19:00 +16°C° 0 mm 3 mps 747 mmHg 57%
20:00 +14°C° 0 mm 3 mps 747 mmHg 57%
21:00 +13°C° 0 mm 3 mps 747 mmHg 57%
22:00 +13°C° 0 mm 3 mps 747 mmHg 56%
23:00 +12°C° 0 mm 3 mps 747 mmHg 56%

24 September, Thursday

Time Temperature Precipitation Wind Pressure Humidity
00:00 +12°C° 0 mm 3 mps 747 mmHg 56%
01:00 +11°C° 0 mm 3 mps 747 mmHg 56%
02:00 +11°C° 0 mm 3 mps 747 mmHg 56%
03:00 +10°C° 0 mm 3 mps 747 mmHg 56%
04:00 +10°C° 0 mm 3 mps 747 mmHg 56%
05:00 +10°C° 0 mm 3 mps 747 mmHg 56%
06:00 +11°C° 0 mm 3 mps 747 mmHg 55%
07:00 +12°C° 0 mm 3 mps 747 mmHg 53%
08:00 +13°C° 0 mm 3 mps 747 mmHg 52%
09:00 +14°C° 0 mm 3 mps 747 mmHg 49%
10:00 +17°C° 0 mm 3 mps 747 mmHg 47%
11:00 +19°C° 0 mm 3 mps 747 mmHg 44%
12:00 +20°C° 0 mm 3 mps 747 mmHg 43%
13:00 +21°C° 0 mm 3 mps 747 mmHg 42%
14:00 +22°C° 0 mm 3 mps 747 mmHg 41%
15:00 +21°C° 0 mm 3 mps 747 mmHg 46%
16:00 +20°C° 0 mm 3 mps 747 mmHg 51%
17:00 +19°C° 0 mm 2 mps 747 mmHg 56%
18:00 +18°C° 0 mm 2 mps 747 mmHg 57%
19:00 +16°C° 0 mm 3 mps 747 mmHg 58%
20:00 +14°C° 0 mm 3 mps 747 mmHg 59%
21:00 +14°C° 0 mm 3 mps 747 mmHg 59%
22:00 +13°C° 0 mm 3 mps 747 mmHg 59%
23:00 +14°C° 0 mm 2 mps 747 mmHg 59%

25 September, Friday

Time Temperature Precipitation Wind Pressure Humidity
00:00 +14°C° 0 mm 2 mps 747 mmHg 59%
01:00 +13°C° 0 mm 2 mps 747 mmHg 58%
02:00 +13°C° 0 mm 2 mps 747 mmHg 58%
03:00 +13°C° 0 mm 2 mps 747 mmHg 58%
04:00 +12°C° 0 mm 2 mps 747 mmHg 59%
05:00 +12°C° 0 mm 2 mps 747 mmHg 59%
06:00 +13°C° 0 mm 2 mps 747 mmHg 58%
07:00 +14°C° 0 mm 2 mps 747 mmHg 57%
08:00 +14°C° 0 mm 3 mps 747 mmHg 55%
09:00 +17°C° 0 mm 3 mps 747 mmHg 52%
10:00 +18°C° 0 mm 3 mps 747 mmHg 49%
11:00 +20°C° 0 mm 3 mps 747 mmHg 46%
12:00 +21°C° 0 mm 3 mps 747 mmHg 46%
13:00 +22°C° 0 mm 4 mps 747 mmHg 45%
14:00 +23°C° 0 mm 4 mps 747 mmHg 44%
15:00 +22°C° 0 mm 4 mps 746 mmHg 49%
16:00 +21°C° 0 mm 3 mps 746 mmHg 55%
17:00 +20°C° 0 mm 3 mps 746 mmHg 60%
18:00 +19°C° 0 mm 3 mps 746 mmHg 61%
19:00 +18°C° 0 mm 3 mps 746 mmHg 62%
20:00 +17°C° 0 mm 4 mps 746 mmHg 64%
21:00 +17°C° 0 mm 4 mps 746 mmHg 61%
22:00 +17°C° 0 mm 4 mps 746 mmHg 59%
23:00 +15°C° 0 mm 4 mps 746 mmHg 57%

26 September, Saturday

Time Temperature Precipitation Wind Pressure Humidity
00:00 +15°C° 0 mm 4 mps 745 mmHg 57%
01:00 +14°C° 0 mm 4 mps 745 mmHg 56%
02:00 +14°C° 0 mm 4 mps 745 mmHg 55%
03:00 +13°C° 0 mm 4 mps 745 mmHg 55%
04:00 +13°C° 0 mm 4 mps 744 mmHg 55%
05:00 +13°C° 0 mm 4 mps 744 mmHg 55%
06:00 +14°C° 0 mm 4 mps 744 mmHg 55%
07:00 +14°C° 0 mm 5 mps 744 mmHg 54%
08:00 +15°C° 0 mm 5 mps 744 mmHg 53%
09:00 +17°C° 0 mm 5 mps 745 mmHg 51%
10:00 +20°C° 0 mm 5 mps 745 mmHg 49%
11:00 +21°C° 0 mm 6 mps 745 mmHg 47%
12:00 +22°C° 0 mm 6 mps 745 mmHg 47%
13:00 +23°C° 0 mm 6 mps 745 mmHg 46%
14:00 +24°C° 0 mm 6 mps 745 mmHg 45%
15:00 +23°C° 0 mm 5 mps 745 mmHg 49%
16:00 +22°C° 0 mm 4 mps 745 mmHg 54%
17:00 +21°C° 0 mm 4 mps 745 mmHg 58%
18:00 +20°C° 0 mm 4 mps 745 mmHg 59%
19:00 +19°C° 0 mm 4 mps 746 mmHg 60%
20:00 +18°C° 0 mm 4 mps 746 mmHg 62%
21:00 +18°C° 0 mm 4 mps 746 mmHg 59%
22:00 +18°C° 0 mm 4 mps 746 mmHg 57%
23:00 +18°C° 0 mm 4 mps 746 mmHg 55%
Show more